Location: Newark
(33.6439°N, 114.9881°W)
Time: 18:25:14
(UTC+00:00)

A-11 Canister half - Pass Details

Date: 25 August 2019
Orbit: 1527 x 1682 km, 47.3° (Epoch: 15 October)

Event Time Altitude Azimuth Distance (km) Brightness Sun altitude
Rises 02:08:11 0° 304° (WNW) 4,936 13.2 0.7°
Reaches altitude 10° 02:11:27 10° 300° (WNW) 3,944 12.8 0.0°
Maximum altitude 02:21:12 55° 226° (SW) 1,943 9.9 -1.9°
Drops below altitude 10° 02:30:45 10° 152° (SSE) 3,857 10.7 -3.8°
Sets 02:33:55 0° 148° (SSE) 4,821 11.2 -4.5°
